Regional Weather Roundup
Issued by NWS

Home | Current Version | Previous Version | Text Only | Print | Product List | Glossary Off
Versions: 1 2 3 4 5 6 7 8 9 10 11 12 13 14 15 16 17 18 19 20 21 22 23 24 25 26 27 28 29 30 31 32 33 34 35 36 37 38 39 40 41 42 43 44 45 46 47 48 49 50

000
ASUS45 KCYS 262210
RWRWY

WYOMING REGIONAL WEATHER ROUNDUP
NATIONAL WEATHER SERVICE CHEYENNE WY
400 PM MDT MON JUN 26 2017

NOTE:  "FAIR" INDICATES FEW OR NO CLOUDS BELOW 12,000 FEET
WITH NO SIGNIFICANT WEATHER AND/OR OBSTRUCTIONS TO VISIBILITY.

WYZ001-262300-
YELLOWSTONE NATIONAL PARK

CITY           SKY/WX    TMP DP  RH WIND       PRES   REMARKS
LK YELLOWSTONE   N/A     76  26  15 W9        30.27F
W YELLOWSTONE  NOT AVBL

$$
WYZ002>013-054>058-071-098>099-262300-
NORTHERN WYOMING

CITY           SKY/WX    TMP DP  RH WIND       PRES   REMARKS
JACKSON        SUNNY     81  36  19 S12G23    30.17F
CODY           FAIR      89  30  12 SE13      30.02F
GREYBULL       FAIR      93  23   8 VRB7      29.95F
WORLAND        FAIR      94  27   9 SW10      29.97F
SHERIDAN       FAIR      88  42  20 E10G17    29.99F
BUFFALO        FAIR      85  38  18 E9        30.07F
GILLETTE       FAIR      86  37  17 SE9G17    30.06F
NEWCASTLE      FAIR      79  34  19 SE13G18   30.13F

$$
WYZ014>020-022>026-101>103-262300-
CENTRAL WYOMING

CITY           SKY/WX    TMP DP  RH WIND       PRES   REMARKS
BIG PINEY      FAIR      80  30  16 SE8       30.22F
PINEDALE       FAIR      77  27  15 W6        30.24F
DUBOIS         FAIR      79  21  11 W18       30.21F
LANDER         FAIR      89  33  13 CALM      30.08F
RIVERTON       FAIR      89  28  11 E7        30.08F
CASPER         FAIR      86  24  10 CALM      30.10F
DOUGLAS        FAIR      84  40  21 SE13      30.13F

$$
WYZ021-027>030-104>119-262300-
SOUTHERN WYOMING

CITY           SKY/WX    TMP DP  RH WIND       PRES   REMARKS
EVANSTON       FAIR      83  32  16 W16G25    30.23F
KEMMERER         N/A     79  28  15 W13G22    30.26S
FORT BRIDGER   FAIR      86  27  11 NW9G23    30.24F
ROCK SPRINGS   FAIR      86  15   7 W14G26    30.18F
DIXON          FAIR      87  28  11 NW5       30.22F
RAWLINS        FAIR      83  18   9 VRB6      30.21F
SARATOGA       FAIR      82  27  13 N8        30.24F
LARAMIE        FAIR      81  27  14 NW9       30.25F
CHEYENNE       FAIR      82  40  22 E10       30.21F
TORRINGTON     FAIR      83  36  18 VRB6      30.11F
PINE BLUFFS    FAIR      81  41  24 E6        30.18F

$$



USA.gov is the U.S. government's official web portal to all federal, state and local government web resources and services.